DC1NF-7 Weather Reports


Display with metric or nautical units.
time (UTC)temp
F
wind
direction
speed
MPH
gust
MPH
rain 1hr
in
rain 24hr
in
rain mn
in
humidity
%
barometer
mb
20260504100541 69 189 5.0 11.0 0.00 0.00 0.00 41 1014.7
20260504081600 67 200 2.0 6.0 0.00 0.00 0.00 47 1015.3
20260504080558 66 180 3.0 6.0 0.00 0.00 0.00 48 1015.4
20260504050550 52 0.0 2.0 0.00 0.00 0.00 76 1015.1
20260504045546 52 0.0 0.0 0.00 0.00 0.00 76 1015.1
20260504044546 52 0.0 0.0 0.00 0.00 0.00 75 1014.9
20260504043538 52 0.0 0.0 0.00 0.00 0.00 75 1014.8
20260504042535 51 0.0 0.0 0.00 0.00 0.00 76 1014.8
20260504041531 51 0.0 0.0 0.00 0.00 0.00 77 1014.8
20260504040528 52 0.0 0.0 0.00 0.00 0.00 76 1014.9
20260504035525 52 0.0 0.0 0.00 0.00 0.00 75 1014.9
20260504034522 52 0.0 0.0 0.00 0.00 0.00 75 1014.9
20260504033518 53 0.0 0.0 0.00 0.00 0.00 72 1015.0
20260504032614 53 0.0 0.0 0.00 0.00 0.00 71 1014.9
20260504031613 53 0.0 0.0 0.00 0.00 0.00 70 1014.9
20260504030609 54 0.0 0.0 0.00 0.00 0.00 69 1014.8
20260504025604 54 0.0 0.0 0.00 0.00 0.00 69 1014.9
20260504024600 55 0.0 0.0 0.00 0.00 0.00 67 1014.9
20260504023602 55 0.0 0.0 0.00 0.00 0.00 67 1014.9
20260504022552 55 0.0 0.0 0.00 0.00 0.00 67 1014.9
20260504021548 55 0.0 0.0 0.00 0.00 0.00 67 1014.9
20260504020547 56 0.0 0.0 0.00 0.00 0.00 65 1014.8
20260504015542 55 0.0 0.0 0.00 0.00 0.00 65 1014.8
20260504014535 55 0.0 0.0 0.00 0.00 0.00 66 1014.8
20260504013532 55 0.0 0.0 0.00 0.00 0.00 65 1014.8
20260504012529 55 0.0 0.0 0.00 0.00 0.00 66 1014.9
20260504011525 55 0.0 0.0 0.00 0.00 0.00 67 1014.9
20260504010524 55 0.0 0.0 0.00 0.00 0.00 65 1015.0
20260504005520 56 0.0 0.0 0.00 0.00 0.00 62 1014.9
20260504004616 57 0.0 0.0 0.00 0.00 0.00 60 1015.0
20260504003618 57 225 1.0 2.0 0.00 0.00 0.00 59 1015.0
20260504002606 56 0.0 0.0 0.00 0.00 0.00 62 1014.9
20260504001603 57 0.0 0.0 0.00 0.00 0.00 61 1014.9
20260504000603 58 0.0 0.0 0.00 0.00 0.00 58 1014.8
20260503235557 59 0.0 0.0 0.00 0.00 0.00 56 1014.9
20260503234554 61 0.0 0.0 0.00 0.00 0.00 53 1014.8
20260503233550 61 0.0 0.0 0.00 0.00 0.00 51 1014.7
20260503232545 61 210 0.0 2.0 0.00 0.00 0.00 52 1014.7
20260503231541 62 241 1.0 2.0 0.00 0.00 0.00 50 1014.8
20260503230541 62 246 3.0 6.0 0.00 0.00 0.00 50 1014.6
20260503225534 63 238 2.0 4.0 0.00 0.00 0.00 50 1014.8
20260503224535 64 261 3.0 6.0 0.00 0.00 0.00 48 1014.6
20260503223527 64 231 2.0 7.0 0.00 0.00 0.00 49 1014.4
20260503222524 64 233 2.0 4.0 0.00 0.00 0.00 49 1014.5
20260503221519 64 248 2.0 4.0 0.00 0.00 0.00 49 1014.4
20260503220515 65 241 2.0 4.0 0.00 0.00 0.00 48 1014.1
20260503215611 64 225 3.0 11.0 0.00 0.00 0.00 49 1014.0
20260503214607 63 236 2.0 4.0 0.00 0.00 0.00 54 1014.3
20260503213606 61 227 1.0 4.0 0.00 0.00 0.00 60 1014.0
20260503212600 59 221 1.0 2.0 0.00 0.00 0.00 69 1014.1
20260503211557 60 241 2.0 4.0 0.00 0.00 0.00 69 1014.0
20260503210556 61 210 1.0 4.0 0.00 0.00 0.00 67 1013.7
20260503205549 60 237 1.0 2.0 0.00 0.00 0.00 68 1013.6
20260503204544 60 243 2.0 4.0 0.00 0.00 0.00 69 1013.5
20260503203541 61 0.0 0.0 0.00 0.00 0.00 67 1013.5
20260503202538 61 0.0 0.0 0.00 0.00 0.00 67 1013.4
20260503201535 61 233 1.0 2.0 0.00 0.00 0.00 65 1013.4
20260503200532 62 228 2.0 4.0 0.00 0.00 0.00 64 1013.3
20260503195529 62 236 2.0 2.0 0.00 0.00 0.00 62 1013.1
20260503194526 63 203 0.0 2.0 0.00 0.00 0.00 62 1013.0
20260503193522 63 0.0 0.0 0.00 0.00 0.00 62 1013.0
20260503192517 64 0.0 0.0 0.00 0.00 0.00 61 1012.7
20260503191616 64 0.0 0.0 0.00 0.00 0.00 60 1012.7
20260503190610 65 0.0 0.0 0.00 0.00 0.00 57 1012.5
20260503185609 66 90 0.0 2.0 0.00 0.00 0.00 55 1012.5
20260503184606 67 0.0 0.0 0.00 0.00 0.00 52 1012.5
20260503183559 68 90 0.0 2.0 0.00 0.00 0.00 50 1012.5
20260503182559 69 0.0 0.0 0.00 0.00 0.00 49 1012.4
20260503181554 71 0.0 0.0 0.00 0.00 0.00 46 1012.4
20260503180548 71 0.0 0.0 0.00 0.00 0.00 44 1012.4
20260503175542 72 0.0 0.0 0.00 0.00 0.00 43 1012.4
20260503174541 73 225 1.0 2.0 0.00 0.00 0.00 40 1012.3
20260503173535 73 233 1.0 4.0 0.00 0.00 0.00 39 1012.3
20260503172534 73 251 2.0 4.0 0.00 0.00 0.00 39 1012.3
20260503171531 74 249 3.0 6.0 0.00 0.00 0.00 38 1012.2
20260503170524 74 230 2.0 4.0 0.00 0.00 0.00 38 1012.2
20260503150541 77 204 3.0 7.0 0.00 0.00 0.00 34 1012.5
20260503130559 80 70 1.0 4.0 0.00 0.00 0.00 30 1013.5
20260503110615 76 137 1.0 4.0 0.00 0.00 0.00 33 1014.7